METEOR 2-8 DEB

Satellite information

Favourite Embed

Satellite Type and Status

DEBRISIN ORBIT

Key statistics

Satellite METEOR 2-8 DEB at a glance.

Uptime

15810

Days in orbit

Revolutions

≈ 14.2

Per day

Orbit

LEO

Low Earth Orbit

Inclination

82.5

Latest

Satellite identification and parameters

Extended collection of information and parameters for METEOR 2-8 DEB.

Object identification

Identified? True

Debris? True

Object name: METEOR 2-8 DEB

International designator: 1982-025BB

Object number (NORAD): 36864

Object ID (CCSDS): 36864

Country: COMMONWEALTH OF INDEPENDENT STATES (CIS)

Current information (Y/N): Y

RCS size: SMALL

Orbital parameters

Period: 101.675 minutes

Inclination: 82.5425 deg

SMA: 7216.102 km

Apoapsis: 845.298 km

Periapsis: 830.635 km

RAAN: 201.4223 deg

Eccentricy: 0.001016

Argument of periapsis: 168.9079 deg

Mean anomaly: 191.2325 deg

Mean motion: 14.16278976 rev/day

Mean motion (dot): 0.00002359 rev/day2

B* drag term: 0.0011823 1/REarth

Two-line elements (TLE)

Creation date: July 5, 2025, 4:36 a.m.

Reference frame: TEME

Reference center: EARTH

Epoch: July 4, 2025, 6:27 p.m. UTC

TLE line 0: 0 METEOR 2-8 DEB

TLE line 1: 1 36864U 82025BB 25185.76917587 .00002359 00000-0 11823-2 0 9991

TLE line 2: 2 36864 82.5425 201.4223 0010160 168.9079 191.2325 14.16278976599284

Live tracking on map

Real-time ground track for satellite METEOR 2-8 DEB.

In-orbit conjunctions

There are no conjunctions computed for METEOR 2-8 DEB, at the moment. Check back to stay up to date, as we update our databases every day.

Go to all conjunctions

Associated space launch

Second generation soviet meteorological satellite

METEOR 2-8 DEB was lifted into orbit during the mission ‘Tsiklon-3 | Meteor-2 8’, on board a Tsiklon-3 space rocket.

The launch took place on March 25, 1982, 9:50 a.m. from 32/1.

For more information about the launch, click the button.

Launch to space Tsiklon-3 | Meteor-2 8
Tsiklon-3 | Meteor-2 8

Agency: N/A

Status: Launch Successful

Launch date: March 25, 1982, 9:50 a.m. UTC

Rocket: Tsiklon-3

Launch pad: 32/1

Location: Plesetsk Cosmodrome, Russian Federation

...

Latest news about this satellite

There are no fresh news available about this satellite. Check back as we update our databases every day.


Newsletter sign-up

Weekly statistics, charts and insights to help you stay on top of the space industry.